Regional Weather Roundup
Issued by NWS

Home | Current Version | Previous Version | Text Only | Print | Product List | Glossary Off
Versions: 1 2 3 4 5 6 7 8 9 10 11 12 13 14 15 16 17 18 19 20 21 22 23 24 25 26 27 28

000
ASUS45 KTFX 251010
RWRMT
MONTANA REGIONAL WEATHER ROUNDUP
NATIONAL WEATHER SERVICE GREAT FALLS MT
400 AM MDT SUN JUN 25 2017

NOTE: "FAIR" INDICATES FEW OR NO CLOUDS BELOW 12000 FEET WITH NO
SIGNIFICANT WEATHER AND/OR OBSTRUCTIONS TO VISIBILITY.

MTZ001>007-043-251100-
WEST OF THE DIVIDE

CITY           SKY/WX    TMP DP  RH WIND       PRES   REMARKS
KALISPELL      CLEAR     48  46  93 CALM      30.22F
MISSOULA       CLEAR     53  41  63 N6        30.25S
BUTTE          CLEAR     43  36  76 SE3       30.37S
MULLAN PASS    CLEAR     59  31  34 SE10      30.33F
ANACONDA         N/A     45  36  70 SW7       30.34F
DEER LODGE       N/A     46  39  76 E3        30.36R
EUREKA           N/A     48  43  81 MISG      30.22S
HAMILTON         N/A     52  41  66 S3        30.26S
$$

MTZ008-052>055-251100-
SOUTHWEST MONTANA

CITY           SKY/WX    TMP DP  RH WIND       PRES   REMARKS
BOZEMAN        CLEAR     46  38  73 NE6       30.34R
DILLON         CLEAR     47  37  68 E6        30.33S
W YELLOWSTONE  CLEAR     34  30  86 CALM      30.41S
ENNIS          CLEAR     41  37  87 E6        30.40R
THREE FORKS      N/A     46  39  76 CALM      30.29S
$$

MTZ009-010-012-014-046-048-049-054-251100-
EAST SLOPES AND CENTRAL MONTANA

CITY           SKY/WX    TMP DP  RH WIND       PRES   REMARKS
CUT BANK       CLEAR     51  42  71 E3        30.31F
GREAT FALLS    CLEAR     44  40  85 SW6       30.32F
MALMSTROM AFB  CLEAR     46  43  87 S6        30.31F
HELENA         CLEAR     51  40  65 W8        30.31S
CHOTEAU          N/A     48  43  81 W5        30.34F
$$

MTZ011-013-016-021-045-047-050-051-251100-
NORTH CENTRAL MONTANA

CITY           SKY/WX    TMP DP  RH WIND       PRES   REMARKS
HAVRE          CLEAR     42  38  85 SW3       30.30F
LEWISTOWN      CLEAR     42  37  82 SE7       30.34F
N BAR RANCH      N/A     43  36  75 CALM      30.37F
CHINOOK          N/A     43  39  87 CALM      30.29S
$$

MTZ017>020-022>027-061-062-251100-
NORTHEAST MONTANA

CITY           SKY/WX    TMP DP  RH WIND       PRES   REMARKS
GLASGOW        CLEAR     45  33  63 N7        30.25S
JORDAN           N/A     43  28  55 W8        30.28S
SIDNEY         PTCLDY    45  35  68 SW10      30.25F
WOLF POINT     CLEAR     42  32  67 NW6       30.25F
MALTA          CLEAR     43  39  87 W8        30.27F
PLENTYWOOD       N/A     52  39  62 CALM      30.25S
POPLAR           N/A     48  34  57 CALM      30.26S
$$

MTZ028>42-056>058-251100-
SOUTHCENTRAL AND SOUTHEAST MONTANA

CITY           SKY/WX    TMP DP  RH WIND       PRES   REMARKS
BAKER          CLEAR     50  31  48 S14       30.31F
BILLINGS       CLOUDY    56  39  53 W3        30.31F
LIVINGSTON     CLEAR     41  35  79 S5        30.36S
MILES CITY     CLEAR     50  31  48 S8        30.29F
BIG TIMBER     CLEAR     48  37  66 S5        30.38S
FORSYTH          N/A     48  36  61 CALM      30.29F
ROUNDUP          N/A     50  33  51 W3        30.20F
$$

REGIONAL REPORTS...DAKOTAS

CITY           SKY/WX    TMP DP  RH WIND       PRES   REMARKS
WILLISTON      CLOUDY    53  39  59 N3        30.26R
MINOT          CLOUDY    51  43  74 SW9       30.24S
DICKINSON      CLEAR     41  32  70 SW9       30.27S
BEACH            N/A     41  34  75 S6        30.31F
CROSBY           N/A     48  48 100 SW5       30.25S
TIOGA          LGT RAIN  46  46 100 CALM      30.28R
WATFORD CITY   MOCLDY    45  37  76 SW5       30.24S
BISMARCK       CLEAR     43  38  82 W3        30.28S
GRAND FORKS    CLEAR     41  40  96 W7        30.19R
FARGO          CLEAR     46  42  86 NW9       30.19R
BUFFALO SD       N/A     47  32  56 SW6       30.27F
RAPID CITY     MOCLDY    41  33  73 W3        30.36F
$$

REGIONAL REPORTS...WYOMING/IDAHO/WASHINGTON

CITY           SKY/WX    TMP DP  RH WIND       PRES   REMARKS
GILLETTE       CLEAR     43  33  68 S10       30.33F
SHERIDAN       CLEAR     44  38  79 CALM      30.33S
BUFFALO WY     CLEAR     51  36  56 W5        30.35F
CODY           CLEAR     47  36  65 N5        30.37S
YELLOWSTONE LA   N/A     35  32  88 CALM      30.48S
IDAHO FALLS    CLEAR     50  45  83 N7        30.25S
SALMON         CLEAR     48  39  71 CALM      30.25F
BOISE          CLEAR     66  39  37 S7        30.09R
SPOKANE        CLEAR     63  46  54 E6        30.13F
$$

REGIONAL REPORTS...ALBERTA

CITY           SKY/WX    TMP DP  RH WIND       PRES   REMARKS
EDMONTON       CLEAR     52  46  82 S5        30.22F
CALGARY        PTCLDY    52  45  76 S3        30.27F
LETHBRIDGE     MOCLDY    48  43  81 S3        30.27F
MEDICINE HAT   CLEAR     48  45  87 SW6       30.27S
WATERTON GATE    N/A     39  37  93 NW1         N/A
MILK RIVER       N/A     43  43 100 W1          N/A
$$

REGIONAL REPORTS...SASKATCHEWAN

CITY           SKY/WX    TMP DP  RH WIND       PRES   REMARKS
SWIFT CURRENT  PTCLDY    46  43  87 SW9       30.25F
REGINA         CLOUDY    46  46 100 VRB2      30.26S
SASKATOON      PTCLDY    43  43 100 NW7       30.26S
CYPRESS HILLS    N/A     48  37  66 NW3         N/A
VAL MARIE        N/A     39  34  81 E1          N/A
ROCKGLEN         N/A     50  39  66 N5          N/A
ASSINIBOIA       N/A     46  45  93 S3          N/A
$$




USA.gov is the U.S. government's official web portal to all federal, state and local government web resources and services.